[[{"header":{"parameterUnit":"m.s-1","parameterCategory":1,"la1":30.2991,"la2":30.254,"lo1":-89.0895,"lo2":-89.0444,"dy":0.0017,"dx":0.0017,"nx":28,"ny":28,"refTime":"2023-10-22T03:00:00:Z","depth":0,"parameterNumber":2,"parameterNumberName":"U-component_of_WINDS"},"data":[0,0,0,0,0,0,0,0,0,0,0,0,0,0,0,0,0,0,0,0,0,0,0,0,0,0,0,0,0,0,0,0,0,0,0,0,0,0,0,0,0,0,0,0,0,0,0,0,0,0,0,0,0,0,0,0,0,0,-2.0695,-2.0695,0,-2.0684,-2.0684,-2.0684,-2.0681,-2.0681,-2.0681,-2.0681,-2.067,-2.0669,-2.0669,0,0,0,0,0,0,0,0,0,0,0,0,0,-2.0714,-2.0714,-2.0695,-2.0695,-2.0695,-2.0684,-2.0684,-2.0684,-2.0681,-2.0681,-2.0681,-2.0681,-2.067,-2.067,-2.0669,0,0,0,0,0,0,0,0,0,0,0,0,0,-2.0705,-2.0714,-2.0695,-2.0692,-2.0692,-2.0684,-2.0684,-2.0684,-2.0681,-2.0681,-2.0681,-2.0681,-2.067,-2.067,-2.0669,-2.0664,0,0,-2.0667,-2.0667,0,0,0,0,0,0,0,0,-2.0705,-2.0704,-2.0693,-2.0692,-2.0692,-2.0684,-2.0687,-2.0677,-2.0681,-2.0685,-2.0681,-2.0681,-2.0674,-2.0674,-2.0671,-2.0663,-2.0662,-2.0667,-2.0667,-2.0667,-2.0667,0,0,0,0,0,0,0,-2.0706,-2.0705,-2.0691,-2.0692,-2.0692,-2.0692,-2.069,-2.0685,-2.0679,-2.0685,-2.0685,-2.0683,-2.0674,-2.0672,-2.0671,-2.0662,-2.0667,-2.0667,-2.0666,-2.0666,-2.0651,-2.0651,0,0,0,0,0,0,-2.0707,-2.0705,-2.0691,-2.069,-2.0699,-2.0691,-2.069,-2.0686,-2.0679,-2.0678,-2.0683,-2.0683,-2.0673,-2.0672,-2.0671,-2.0664,-2.0667,-2.0666,-2.0666,-2.0651,-2.0651,-2.065,0,0,0,0,0,0,-2.0708,-2.0706,-2.0691,-2.0698,-2.0696,-2.0691,-2.0687,-2.0686,-2.0684,-2.0678,-2.0677,-2.0682,-2.0673,-2.0671,-2.0666,-2.0664,-2.0666,-2.0665,-2.0651,-2.0651,-2.0651,-2.0651,0,0,0,0,0,0,-2.0708,-2.0706,-2.0703,-2.0698,-2.0696,-2.0686,-2.0687,-2.0686,-2.0683,-2.0683,-2.0676,-2.0676,-2.0673,-2.0667,-2.0665,-2.0663,-2.0665,-2.0651,-2.0651,-2.0651,-2.0652,-2.0651,-2.0651,0,0,0,0,0,-2.0709,-2.0704,-2.0703,-2.0702,-2.0692,-2.0686,-2.0685,-2.0682,-2.0683,-2.068,-2.0677,-2.0676,-2.0665,-2.0666,-2.0664,-2.0662,-2.0651,-2.0651,-2.0651,-2.0652,-2.0651,-2.0651,0,0,0,0,0,0,-2.0709,-2.0703,-2.0702,-2.0695,-2.0691,-2.0686,-2.0682,-2.0682,-2.0677,-2.0677,-2.0674,-2.0672,-2.0667,-2.0664,-2.0666,-2.0657,-2.0658,-2.0657,-2.0659,-2.0659,-2.0659,-2.0659,-2.0665,0,0,0,0,0,-2.0708,-2.0704,-2.0699,-2.0693,-2.0691,-2.0687,-2.0685,-2.0683,-2.0679,-2.0677,-2.0673,-2.0669,-2.0665,-2.0662,-2.0657,-2.0652,-2.0651,-2.065,-2.0649,-2.0649,-2.0649,-2.0646,-2.0646,-2.065,-2.065,-2.065,0,0,-2.0706,-2.0703,-2.07,-2.0693,-2.069,-2.0686,-2.0686,-2.0681,-2.0678,-2.0676,-2.067,-2.0668,-2.0663,-2.0658,-2.0655,-2.0655,-2.0648,-2.0649,-2.0649,-2.0648,-2.0646,-2.0646,-2.0646,-2.065,-2.065,-2.065,0,0,-2.0701,-2.0698,-2.0693,-2.069,-2.0686,-2.0683,-2.0682,-2.0677,-2.0676,-2.067,-2.0669,-2.0666,-2.0658,-2.0655,-2.0653,-2.0649,-2.0647,-2.0647,-2.0646,-2.0644,-2.0644,-2.0644,-2.0642,-2.0642,-2.0647,-2.0647,-2.0647,0,-2.0699,-2.0693,-2.0691,-2.0687,-2.0684,-2.0683,-2.0678,-2.0676,-2.067,-2.0668,-2.0669,-2.066,-2.0657,-2.0651,-2.065,-2.0648,-2.0647,-2.0647,-2.0644,-2.0644,-2.0643,-2.0642,-2.0642,-2.0647,-2.0647,-2.0647,-2.0647,0,-2.0692,-2.0687,-2.0684,-2.0679,-2.0676,-2.0672,-2.067,-2.0667,-2.0666,-2.0664,-2.0659,-2.0656,-2.0651,-2.065,-2.0649,-2.0644,-2.0645,-2.0645,-2.0645,-2.0643,-2.0642,-2.0642,-2.0647,-2.0647,-2.0647,-2.0647,0,0,-2.0684,-2.068,-2.0679,-2.0677,-2.0673,-2.0669,-2.0666,-2.0662,-2.066,-2.0656,-2.0653,-2.0648,-2.0648,-2.0646,-2.0644,-2.0643,-2.064,-2.0643,-2.0643,-2.0643,-2.0637,-2.0636,-2.0636,-2.064,-2.064,-2.064,-2.0637,0,-2.0679,-2.0672,-2.067,-2.0665,-2.0661,-2.0661,-2.0658,-2.0655,-2.0654,-2.0651,-2.0649,-2.0646,-2.0646,-2.0645,-2.0643,-2.0641,-2.0639,-2.0641,-2.0637,-2.0637,-2.0638,-2.0635,-2.0635,-2.0632,-2.0637,-2.0636,-2.0636,0,-2.067,-2.0668,-2.0661,-2.0659,-2.0658,-2.0655,-2.0652,-2.0649,-2.0646,-2.0646,-2.0643,-2.0643,-2.064,-2.0641,-2.0637,-2.0638,-2.0637,-2.0636,-2.0636,-2.0635,-2.0636,-2.0634,-2.0631,-2.0631,-2.0636,-2.0636,-2.0636,0,-2.0666,-2.0661,-2.0657,-2.0655,-2.0652,-2.065,-2.0649,-2.0647,-2.0645,-2.0643,-2.0642,-2.0639,-2.0637,-2.0635,-2.0634,-2.0635,-2.0631,-2.0632,-2.063,-2.063,-2.0628,-2.0628,-2.0625,-2.0628,-2.0628,-2.0628,-2.0628,0,-2.066,-2.0656,-2.0655,-2.0652,-2.0649,-2.0648,-2.0644,-2.0643,-2.0642,-2.0639,-2.0639,-2.0637,-2.0636,-2.0634,-2.0633,-2.063,-2.0629,-2.0629,-2.0629,-2.0629,-2.0629,-2.0627,-2.0627,-2.0628,-2.0628,-2.0628,-2.0628,0,-2.0654,-2.0653,-2.0649,-2.0647,-2.0646,-2.0644,-2.0642,-2.064,-2.0639,-2.0636,-2.0636,-2.0634,-2.0632,-2.0631,-2.0628,-2.0628,-2.0625,-2.0625,-2.0626,-2.0625,-2.0624,-2.0624,-2.0619,-2.0618,-2.0622,-2.0622,-2.0622,0,-2.0649,-2.0647,-2.0645,-2.0643,-2.0642,-2.064,-2.0638,-2.0638,-2.0637,-2.0635,-2.0633,-2.0631,-2.0629,-2.0626,-2.0625,-2.0623,-2.0623,-2.0621,-2.0622,-2.0623,-2.0623,-2.0623,-2.0623,-2.0621,-2.062,-2.062,-2.062,0,-2.0642,-2.0642,-2.064,-2.0638,-2.0636,-2.0635,-2.0633,-2.0632,-2.0632,-2.063,-2.0628,-2.0627,-2.0625,-2.0623,-2.0621,-2.062,-2.062,-2.062,-2.062,-2.062,-2.062,-2.062,-2.0625,-2.062,-2.062,-2.062,-2.062,-2.062,-2.0636,-2.0635,-2.0633,-2.0631,-2.063,-2.0629,-2.0628,-2.0627,-2.0626,-2.0624,-2.0624,-2.0622,-2.0621,-2.0619,-2.0618,-2.0617,-2.0618,-2.0617,-2.0617,-2.0616,-2.0616,-2.0621,-2.0617,-2.0617,-2.0617,-2.0617,-2.0617,0,-2.0629,-2.0629,-2.0627,-2.0625,-2.0624,-2.0625,-2.0624,-2.0623,-2.0621,-2.062,-2.0619,-2.0617,-2.0616,-2.0616,-2.0614,-2.0614,-2.0614,-2.0613,-2.0613,-2.0613,-2.0616,-2.0616,-2.0613,-2.0613,-2.0613,-2.0613,-2.0613,-2.0613,-2.0625,-2.0622,-2.0622,-2.0619,-2.0619,-2.0617,-2.0617,-2.0616,-2.0616,-2.0614,-2.0613,-2.0613,-2.0612,-2.0612,-2.0611,-2.0611,-2.061,-2.061,-2.061,-2.0612,-2.0613,-2.0613,-2.0614,-2.061,-2.061,-2.0607,-2.0607,-2.0607]},{"header":{"parameterUnit":"m.s-1","parameterCategory":1,"la1":30.2991,"la2":30.254,"lo1":-89.0895,"lo2":-89.0444,"dy":0.0017,"dx":0.0017,"nx":28,"ny":28,"refTime":"2023-10-22T03:00:00:Z","depth":0,"parameterNumber":3,"parameterNumberName":"V-component_of_WINDS"},"data":[0,0,0,0,0,0,0,0,0,0,0,0,0,0,0,0,0,0,0,0,0,0,0,0,0,0,0,0,0,0,0,0,0,0,0,0,0,0,0,0,0,0,0,0,0,0,0,0,0,0,0,0,0,0,0,0,0,0,1.835,1.835,0,1.8318,1.8317,1.8317,1.8372,1.8374,1.8376,1.8378,1.8337,1.8334,1.8332,0,0,0,0,0,0,0,0,0,0,0,0,0,1.8453,1.8451,1.835,1.835,1.8349,1.8318,1.8317,1.8317,1.8372,1.8374,1.8376,1.8379,1.8338,1.8335,1.8331,0,0,0,0,0,0,0,0,0,0,0,0,0,1.8413,1.845,1.835,1.8373,1.8375,1.8318,1.8317,1.8317,1.8371,1.8374,1.8377,1.838,1.8339,1.8335,1.8331,1.8248,0,0,1.8318,1.8316,0,0,0,0,0,0,0,0,1.8415,1.8409,1.837,1.8371,1.8373,1.8352,1.8339,1.8293,1.8371,1.8372,1.8378,1.8381,1.8339,1.8335,1.8323,1.8246,1.8244,1.8317,1.8315,1.8313,1.8312,0,0,0,0,0,0,0,1.8418,1.8411,1.8337,1.8369,1.8371,1.8383,1.838,1.833,1.834,1.8372,1.8376,1.8372,1.8341,1.8327,1.8322,1.8243,1.8318,1.8314,1.8311,1.8309,1.8096,1.8094,0,0,0,0,0,0,1.8419,1.8413,1.8338,1.8336,1.8402,1.8379,1.8376,1.8356,1.8341,1.8341,1.837,1.8375,1.8333,1.8327,1.8321,1.8223,1.8313,1.8309,1.8307,1.81,1.8096,1.8092,0,0,0,0,0,0,1.8421,1.8412,1.8339,1.8376,1.8367,1.8374,1.8351,1.8354,1.834,1.8339,1.834,1.8354,1.8335,1.8327,1.8266,1.8222,1.8307,1.8303,1.8103,1.8098,1.8094,1.8025,0,0,0,0,0,0,1.8424,1.8412,1.8382,1.8375,1.8365,1.8287,1.8348,1.8351,1.8333,1.834,1.8325,1.8325,1.8336,1.8272,1.8262,1.8218,1.83,1.8107,1.8101,1.8096,1.8032,1.8019,1.8008,0,0,0,0,0,1.8427,1.8362,1.838,1.8371,1.8328,1.8284,1.8279,1.8295,1.8329,1.8298,1.8298,1.8325,1.8229,1.8265,1.8254,1.8208,1.811,1.8103,1.8096,1.8037,1.8021,1.8008,0,0,0,0,0,0,1.8361,1.8362,1.8381,1.8313,1.8298,1.8294,1.8255,1.8278,1.8252,1.8258,1.8278,1.8274,1.8209,1.8202,1.8243,1.8127,1.8175,1.8165,1.8134,1.8119,1.8107,1.811,1.8296,0,0,0,0,0,1.834,1.8306,1.8307,1.8246,1.8238,1.8248,1.8229,1.8244,1.8228,1.8222,1.8217,1.8199,1.8165,1.8141,1.811,1.8031,1.8028,1.7994,1.7982,1.7973,1.7964,1.7921,1.7906,1.807,1.807,1.807,0,0,1.8293,1.8289,1.8266,1.8233,1.8224,1.8187,1.8242,1.82,1.8173,1.8214,1.8158,1.8153,1.8134,1.8064,1.8033,1.8057,1.7918,1.7964,1.7956,1.7952,1.7913,1.7897,1.7883,1.8065,1.8066,1.8066,0,0,1.8189,1.8183,1.8132,1.8122,1.8108,1.8115,1.8102,1.8094,1.8094,1.8038,1.8068,1.8034,1.7975,1.7961,1.7945,1.7837,1.7861,1.7826,1.7764,1.7723,1.771,1.7699,1.766,1.7645,1.7817,1.7817,1.7817,0,1.8132,1.808,1.8102,1.8059,1.8043,1.8082,1.803,1.8018,1.7993,1.798,1.8008,1.7935,1.7925,1.7852,1.7826,1.7812,1.7798,1.7828,1.7711,1.7699,1.7689,1.7652,1.7637,1.7813,1.7814,1.7814,1.7814,0,1.801,1.7974,1.7934,1.7912,1.7892,1.7843,1.7857,1.7833,1.7849,1.7852,1.7794,1.7784,1.7751,1.7735,1.7749,1.7663,1.7679,1.7708,1.7756,1.7669,1.7635,1.7621,1.7807,1.7809,1.781,1.7811,0,0,1.7864,1.7856,1.7841,1.7832,1.7819,1.779,1.7743,1.7714,1.7693,1.7674,1.7635,1.7584,1.7612,1.7595,1.7607,1.7571,1.7486,1.7605,1.7605,1.7583,1.739,1.7368,1.7352,1.7502,1.7499,1.7497,1.7392,0,1.7761,1.7684,1.7702,1.7624,1.759,1.7627,1.7586,1.7573,1.7575,1.7545,1.7546,1.751,1.7549,1.7539,1.7505,1.7503,1.7447,1.7511,1.7463,1.7461,1.7467,1.7334,1.731,1.7211,1.7379,1.7376,1.7375,0,1.763,1.761,1.7529,1.7524,1.751,1.7473,1.7448,1.7419,1.7404,1.7408,1.7389,1.7409,1.7361,1.7411,1.7344,1.7387,1.7368,1.7365,1.7361,1.7357,1.7412,1.7325,1.718,1.7165,1.7354,1.7355,1.7357,0,1.7531,1.7483,1.7429,1.742,1.7411,1.7385,1.738,1.7368,1.7349,1.7326,1.7314,1.7284,1.7268,1.7244,1.7255,1.729,1.7185,1.7236,1.7186,1.7185,1.7161,1.7163,1.7011,1.715,1.715,1.7151,1.7151,0,1.7414,1.7363,1.7385,1.7351,1.7295,1.7317,1.726,1.7258,1.7248,1.7213,1.7242,1.7209,1.7226,1.7193,1.72,1.7144,1.7136,1.7136,1.7139,1.7134,1.7133,1.7121,1.7128,1.7147,1.7147,1.7148,1.7149,0,1.7294,1.7306,1.725,1.7247,1.7245,1.7204,1.7201,1.7169,1.7173,1.7129,1.712,1.7126,1.7089,1.7098,1.7056,1.7062,1.699,1.7001,1.6996,1.6998,1.6948,1.6952,1.6782,1.6761,1.6914,1.6913,1.6911,0,1.7218,1.7181,1.7175,1.7155,1.7149,1.7116,1.7098,1.7117,1.7096,1.7077,1.7047,1.7013,1.6987,1.6925,1.6925,1.6893,1.6903,1.6846,1.6898,1.6894,1.6902,1.6904,1.69,1.6835,1.6833,1.6832,1.6831,0,1.7083,1.7091,1.7065,1.7041,1.7019,1.7,1.6984,1.6965,1.6983,1.6958,1.6922,1.6902,1.6861,1.6826,1.6797,1.6789,1.6812,1.6815,1.6801,1.6795,1.6794,1.6793,1.6967,1.6818,1.6819,1.682,1.6821,1.6822,1.6982,1.6951,1.6942,1.6912,1.6902,1.6887,1.6857,1.6859,1.683,1.68,1.6812,1.677,1.6756,1.672,1.6708,1.6675,1.6696,1.6677,1.6672,1.6666,1.666,1.68,1.6669,1.667,1.667,1.667,1.6671,0,1.6848,1.6845,1.6817,1.6795,1.6771,1.6797,1.6781,1.6758,1.6722,1.6708,1.6682,1.664,1.6607,1.6604,1.6573,1.6546,1.6555,1.6537,1.6539,1.6536,1.6643,1.6658,1.653,1.653,1.653,1.653,1.653,1.653,1.6776,1.6724,1.6731,1.6674,1.6671,1.6632,1.662,1.6605,1.6594,1.6547,1.6521,1.652,1.651,1.6478,1.6448,1.6448,1.6435,1.6412,1.6415,1.6515,1.6529,1.6542,1.6556,1.6409,1.6409,1.6312,1.6311,1.631]}]]